Location: Archemont
(49.1579°N, 1.7598°E)
Time: 10:14:54
(UTC+00:00)

deb Explorer IX - Pass Details

Date: 18 April 2024
Orbit: 513 x 891 km, 38.7° (Epoch: 23 May)

Event Time Altitude Azimuth Distance (km) Brightness Sun altitude
Rises 14:09:28 0° 252° (WSW) 3,512 ? 42.5°
Reaches altitude 10° 14:12:20 10° 243° (WSW) 2,578 ? 42.2°
Maximum altitude 14:17:40 31° 184° (S) 1,520 ? 41.5°
Drops below altitude 10° 14:22:52 10° 124° (SE) 2,499 ? 40.8°
Sets 14:25:37 0° 114° (ESE) 3,389 ? 40.5°
